Regional Weather Roundup
Issued by NWS

Home | Current Version | Previous Version | Graphics & Text | Print | Product List | Glossary On
Versions: 1 2 3 4 5 6 7 8 9 10 11 12 13 14 15 16 17 18 19 20 21 22 23 24 25 26 27 28 29 30 31 32 33 34 35 36 37 38 39 40 41 42 43 44 45 46 47 48 49 50
031
ASUS45 KSLC 181510
RWRUT

UTAH REGIONAL WEATHER ROUNDUP
NATIONAL WEATHER SERVICE SALT LAKE CITY UT
900 AM MDT WED APR 18 2018

UTZ001>011-023>025-181600-

NORTHERN UTAH

CITY           SKY/WX    TMP DP  RH WIND       PRES   REMARKS
BRIGHAM CITY   SUNNY     34  22  63 CALM      30.28S
DUGWAY         PTSUNNY   42  21  43 VRB1      30.25S
HILL AFB       PTSUNNY   36  18  48 E14       30.25S WCI  27
LOGAN          SUNNY     38  23  55 N3        30.28S
OGDEN          MOSUNNY   41  18  39 E3        30.25S
SALT LAKE CITY PTSUNNY   42  23  46 S7        30.25F
TOOELE VALLEY  PTSUNNY   41  28  60 S8        30.25F
WENDOVER       CLOUDY    37  20  50 CALM      30.24S
HEBER CITY       N/A     30  18  59 CALM      30.28S
WEST JORDAN    MOSUNNY   39  27  61 SE8       30.26F WCI  34

$$

UTZ011>015-024>027-181600-

CENTRAL/NORTHEAST UTAH

CITY           SKY/WX    TMP DP  RH WIND       PRES   REMARKS
PROVO AIRPORT  MOSUNNY   38  20  48 CALM      30.28F
MOAB/CANYONLAN SUNNY     43  10  26 E9        30.27S
DELTA          MOSUNNY   36  27  69 NE8       30.23R WCI  29
PRICE          SUNNY     35  12  38 SW3       30.27S
ROOSEVELT      SUNNY     34  10  37 CALM      30.35R
VERNAL         SUNNY     36   8  31 CALM      30.32R

$$

UTZ013>016-019>022-027-181600-

SOUTHERN UTAH

CITY           SKY/WX    TMP DP  RH WIND       PRES   REMARKS
BRYCE CANYON   SUNNY     29  10  45 NE3       30.25R
CEDAR CITY     SUNNY     34  18  52 CALM      30.19S
MILFORD        SUNNY     35  26  69 CALM      30.22R
ST GEORGE      SUNNY     47  10  22 CALM      30.21R
HANKSVILLE     SUNNY     36   9  32 CALM      30.32R
BLANDING         N/A     43   2  18 NE15      30.32R

$$

REGIONAL REPORTS     COLORADO/ARIZONA

CITY           SKY/WX    TMP DP  RH WIND       PRES   REMARKS
CRAIG, CO      SUNNY     29  18  63 E8        30.33R WCI  21
GRAND JUNCTION SUNNY     40  20  44 SE16      30.31R WCI  31
RIFLE, CO      SUNNY     30  22  72 CALM      30.34S
MONTROSE, CO   SUNNY     34  10  37 CALM      30.34R
CORTEZ, CO     SUNNY     37   0  21 VRB3      30.25S
COLORADO CITY    N/A     50   9  18 NE14      30.23R
PAGE, AZ       SUNNY     47   9  21 CALM      30.25R
GRAND CANYON   SUNNY     40   2  20 E12G21    30.23R WCI  33
KINGMAN, AZ    SUNNY     52   3  13 N5        30.13R
FLAGSTAFF, AZ  SUNNY     38   1  21 E12       30.22R WCI  30

$$

REGIONAL REPORTS    NEVADA/IDAHO/WYOMING

CITY           SKY/WX    TMP DP  RH WIND       PRES   REMARKS
LAS VEGAS, NV  MOSUNNY   58  12  16 N5        30.12R
ELY, NY        MOSUNNY   31  15  52 CALM      30.19S
ELKO, NV       PTSUNNY   32  20  61 CALM      30.15F
POCATELLO, ID  SUNNY     39  20  46 CALM      30.26R
BURLEY, ID     MOSUNNY   35  23  61 NE5       30.22R WCI  31
EVANSTON, WY   SUNNY     27  16  63 CALM      30.25R
ROCK SPRINGS,  SUNNY     29  14  53 W5        30.28R WCI  24
KEMMERER, WY   SUNNY     27  18  69 N5        30.26R WCI  21

$$




USA.gov is the U.S. government's official web portal to all federal, state and local government web resources and services.